| time (UTC) | temp F | wind direction | speed MPH | gust MPH | rain 1hr in | rain 24hr in | rain mn in | humidity % | barometer mb |
| 20260508033002 | 75 | 273 | 0.0 | 0.0 | 0.00 | 0.00 | 0.00 | 86 | 1013.2 |
| 20260508031002 | 75 | 273 | 0.0 | 0.0 | 0.00 | 0.00 | 0.00 | 86 | 1013.2 |
| 20260508025002 | 76 | 273 | 0.0 | 0.0 | 0.00 | 0.00 | 0.00 | 84 | 1013.2 |
| 20260508024012 | 76 | 273 | 0.0 | 1.0 | 0.00 | 0.00 | 0.00 | 84 | 1013.2 |
| 20260508021002 | 77 | 273 | 0.0 | 3.0 | 0.00 | 0.00 | 0.00 | 79 | 1012.9 |
| 20260508020007 | 77 | 275 | 0.0 | 2.0 | 0.00 | 0.00 | 0.00 | 78 | 1012.8 |
| 20260508014004 | 78 | 275 | 1.0 | 3.0 | 0.00 | 0.00 | 0.00 | 76 | 1012.7 |
| 20260508013002 | 78 | 276 | 1.0 | 3.0 | 0.00 | 0.00 | 0.00 | 75 | 1012.7 |
| 20260508012005 | 79 | 275 | 2.0 | 4.0 | 0.00 | 0.00 | 0.00 | 73 | 1012.6 |
| 20260508011002 | 80 | 275 | 2.0 | 6.0 | 0.00 | 0.00 | 0.00 | 71 | 1012.5 |
| 20260508010006 | 80 | 274 | 1.0 | 3.0 | 0.00 | 0.00 | 0.00 | 69 | 1012.4 |
| 20260508005002 | 81 | 275 | 2.0 | 4.0 | 0.00 | 0.00 | 0.00 | 67 | 1012.3 |
| 20260508004004 | 81 | 274 | 2.0 | 4.0 | 0.00 | 0.00 | 0.00 | 65 | 1012.3 |
| 20260508003002 | 82 | 277 | 2.0 | 5.0 | 0.00 | 0.00 | 0.00 | 63 | 1012.3 |
| 20260508001002 | 83 | 274 | 3.0 | 7.0 | 0.00 | 0.00 | 0.00 | 60 | 1012.3 |
| 20260508000006 | 84 | 277 | 4.0 | 7.0 | 0.00 | 0.00 | 0.00 | 59 | 1012.3 |
| 20260507235002 | 85 | 282 | 5.0 | 9.0 | 0.00 | 0.00 | 0.00 | 57 | 1012.4 |
| 20260507234004 | 86 | 279 | 4.0 | 8.0 | 0.00 | 0.00 | 0.00 | 55 | 1012.4 |
| 20260507233002 | 86 | 298 | 3.0 | 9.0 | 0.00 | 0.00 | 0.00 | 53 | 1012.3 |
| 20260507232004 | 86 | 290 | 3.0 | 9.0 | 0.00 | 0.00 | 0.00 | 52 | 1012.2 |
| 20260507231002 | 87 | 295 | 4.0 | 10.0 | 0.00 | 0.00 | 0.00 | 49 | 1012.1 |
| 20260507225002 | 88 | 323 | 4.0 | 10.0 | 0.00 | 0.00 | 0.00 | 46 | 1012.0 |
| 20260507224004 | 88 | 360 | 4.0 | 11.0 | 0.00 | 0.00 | 0.00 | 44 | 1012.1 |
| 20260507223002 | 88 | 277 | 6.0 | 11.0 | 0.00 | 0.00 | 0.00 | 43 | 1012.0 |
| 20260507222004 | 89 | 322 | 6.0 | 13.0 | 0.00 | 0.00 | 0.00 | 40 | 1012.0 |
| 20260507221002 | 89 | 300 | 6.0 | 11.0 | 0.00 | 0.00 | 0.00 | 41 | 1011.9 |
| 20260507215007 | 89 | 266 | 7.0 | 13.0 | 0.00 | 0.00 | 0.00 | 41 | 1011.8 |
| 20260507213002 | 90 | 291 | 7.0 | 13.0 | 0.00 | 0.00 | 0.00 | 38 | 1011.8 |
| 20260507212002 | 90 | 275 | 7.0 | 14.0 | 0.00 | 0.00 | 0.00 | 38 | 1011.9 |
| 20260507211002 | 90 | 266 | 8.0 | 13.0 | 0.00 | 0.00 | 0.00 | 39 | 1011.8 |
| 20260507210008 | 90 | 263 | 6.0 | 13.0 | 0.00 | 0.00 | 0.00 | 40 | 1011.9 |
| 20260507205002 | 91 | 306 | 7.0 | 12.0 | 0.00 | 0.00 | 0.00 | 39 | 1012.1 |
| 20260507204004 | 91 | 266 | 5.0 | 11.0 | 0.00 | 0.00 | 0.00 | 38 | 1012.0 |
| 20260507203002 | 90 | 245 | 7.0 | 14.0 | 0.00 | 0.00 | 0.00 | 38 | 1012.0 |
| 20260507201002 | 91 | 302 | 5.0 | 11.0 | 0.00 | 0.00 | 0.00 | 36 | 1012.2 |
| 20260507200006 | 90 | 221 | 5.0 | 9.0 | 0.00 | 0.00 | 0.00 | 44 | 1012.3 |
| 20260507195002 | 89 | 290 | 6.0 | 14.0 | 0.00 | 0.00 | 0.00 | 44 | 1012.4 |
| 20260507194004 | 89 | 193 | 6.0 | 12.0 | 0.00 | 0.00 | 0.00 | 51 | 1012.4 |
| 20260507193002 | 89 | 226 | 5.0 | 11.0 | 0.00 | 0.00 | 0.00 | 53 | 1012.6 |
| 20260507191001 | 89 | 240 | 6.0 | 13.0 | 0.00 | 0.00 | 0.00 | 54 | 1013.0 |
| 20260507190007 | 87 | 267 | 5.0 | 11.0 | 0.00 | 0.00 | 0.00 | 58 | 1013.1 |
| 20260507185002 | 87 | 250 | 6.0 | 13.0 | 0.00 | 0.00 | 0.00 | 58 | 1013.3 |
| 20260507184004 | 87 | 184 | 6.0 | 13.0 | 0.00 | 0.00 | 0.00 | 59 | 1013.5 |
| 20260507183002 | 87 | 222 | 7.0 | 13.0 | 0.00 | 0.00 | 0.00 | 59 | 1013.7 |
| 20260507182004 | 87 | 246 | 6.0 | 10.0 | 0.00 | 0.00 | 0.00 | 62 | 1013.8 |
| 20260507181001 | 87 | 211 | 7.0 | 12.0 | 0.00 | 0.00 | 0.00 | 64 | 1014.1 |
| 20260507180007 | 87 | 234 | 7.0 | 13.0 | 0.00 | 0.00 | 0.00 | 62 | 1014.2 |
| 20260507175002 | 86 | 213 | 7.0 | 14.0 | 0.00 | 0.00 | 0.00 | 65 | 1014.3 |
| 20260507174002 | 86 | 218 | 7.0 | 14.0 | 0.00 | 0.00 | 0.00 | 65 | 1014.4 |
| 20260507173002 | 86 | 211 | 6.0 | 14.0 | 0.00 | 0.00 | 0.00 | 65 | 1014.4 |
| 20260507172002 | 86 | 194 | 6.0 | 11.0 | 0.00 | 0.00 | 0.00 | 67 | 1014.4 |
| 20260507171002 | 86 | 188 | 7.0 | 15.0 | 0.00 | 0.00 | 0.00 | 64 | 1014.5 |
| 20260507170005 | 86 | 240 | 6.0 | 14.0 | 0.00 | 0.00 | 0.00 | 67 | 1014.5 |
| 20260507165003 | 86 | 235 | 5.0 | 12.0 | 0.00 | 0.00 | 0.00 | 67 | 1014.5 |
| 20260507164004 | 84 | 232 | 6.0 | 15.0 | 0.00 | 0.00 | 0.00 | 68 | 1014.7 |
| 20260507163002 | 85 | 216 | 6.0 | 12.0 | 0.00 | 0.00 | 0.00 | 65 | 1014.9 |
| 20260507161002 | 84 | 224 | 6.0 | 10.0 | 0.00 | 0.00 | 0.00 | 69 | 1015.0 |
| 20260507160008 | 84 | 209 | 7.0 | 12.0 | 0.00 | 0.00 | 0.00 | 68 | 1014.9 |
| 20260507155002 | 84 | 188 | 6.0 | 11.0 | 0.00 | 0.00 | 0.00 | 70 | 1014.9 |
| 20260507154010 | 84 | 198 | 6.0 | 11.0 | 0.00 | 0.00 | 0.00 | 69 | 1014.9 |
| 20260507153004 | 83 | 212 | 5.0 | 11.0 | 0.00 | 0.00 | 0.00 | 73 | 1014.9 |
| 20260507152002 | 83 | 215 | 6.0 | 12.0 | 0.00 | 0.00 | 0.00 | 72 | 1015.1 |
| 20260507151004 | 82 | 201 | 7.0 | 13.0 | 0.00 | 0.00 | 0.00 | 72 | 1015.0 |
| 20260507150003 | 83 | 228 | 5.0 | 9.0 | 0.00 | 0.00 | 0.00 | 74 | 1015.0 |
| 20260507145000 | 83 | 197 | 5.0 | 10.0 | 0.00 | 0.00 | 0.00 | 74 | 1015.2 |
| 20260507143000 | 81 | 215 | 6.0 | 12.0 | 0.00 | 0.00 | 0.00 | 77 | 1015.0 |
| 20260507142003 | 81 | 262 | 6.0 | 13.0 | 0.00 | 0.00 | 0.00 | 78 | 1015.0 |
| 20260507140006 | 81 | 209 | 4.0 | 8.0 | 0.00 | 0.00 | 0.00 | 81 | 1014.7 |
| 20260507134003 | 80 | 226 | 4.0 | 10.0 | 0.00 | 0.00 | 0.00 | 81 | 1014.8 |
| 20260507133000 | 79 | 205 | 3.0 | 8.0 | 0.00 | 0.00 | 0.00 | 83 | 1014.8 |
| 20260507131000 | 78 | 235 | 2.0 | 7.0 | 0.00 | 0.00 | 0.00 | 87 | 1014.5 |
| 20260507125001 | 76 | 200 | 0.0 | 4.0 | 0.00 | 0.00 | 0.00 | 94 | 1014.5 |
| 20260507124003 | 74 | 176 | 1.0 | 3.0 | 0.00 | 0.00 | 0.00 | 95 | 1014.5 |
| 20260507123000 | 73 | 204 | 0.0 | 2.0 | 0.00 | 0.00 | 0.00 | 96 | 1014.5 |
| 20260507122003 | 72 | 271 | 0.0 | 0.0 | 0.00 | 0.00 | 0.00 | 95 | 1014.4 |
| 20260507121000 | 71 | 326 | 0.0 | 2.0 | 0.00 | 0.00 | 0.00 | 96 | 1014.4 |
| 20260507114003 | 68 | 304 | 0.0 | 2.0 | 0.00 | 0.00 | 0.00 | 95 | 1014.5 |
| 20260507113001 | 66 | 273 | 0.0 | 0.0 | 0.00 | 0.00 | 0.00 | 94 | 1014.5 |
| 20260507112003 | 66 | 273 | 0.0 | 0.0 | 0.00 | 0.00 | 0.00 | 94 | 1014.4 |
| 20260507111000 | 66 | 273 | 0.0 | 0.0 | 0.00 | 0.00 | 0.00 | 93 | 1014.3 |
| 20260507110005 | 66 | 273 | 0.0 | 0.0 | 0.00 | 0.00 | 0.00 | 93 | 1014.0 |
| 20260507105000 | 66 | 273 | 0.0 | 0.0 | 0.00 | 0.00 | 0.00 | 93 | 1013.9 |
| 20260507104001 | 66 | 273 | 0.0 | 0.0 | 0.00 | 0.00 | 0.00 | 93 | 1013.7 |
| 20260507103000 | 66 | 273 | 0.0 | 0.0 | 0.00 | 0.00 | 0.00 | 93 | 1013.5 |
| 20260507102000 | 66 | 273 | 0.0 | 0.0 | 0.00 | 0.00 | 0.00 | 93 | 1013.5 |
| 20260507101004 | 66 | 273 | 0.0 | 0.0 | 0.00 | 0.00 | 0.00 | 93 | 1013.3 |
| 20260507095000 | 67 | 273 | 0.0 | 0.0 | 0.00 | 0.00 | 0.00 | 93 | 1013.1 |
| 20260507094002 | 67 | 273 | 0.0 | 0.0 | 0.00 | 0.00 | 0.00 | 92 | 1013.2 |
| 20260507093000 | 67 | 273 | 0.0 | 0.0 | 0.00 | 0.00 | 0.00 | 92 | 1013.2 |
| 20260507092002 | 67 | 273 | 0.0 | 0.0 | 0.00 | 0.00 | 0.00 | 92 | 1013.0 |
| 20260507091000 | 68 | 273 | 0.0 | 0.0 | 0.00 | 0.00 | 0.00 | 92 | 1012.9 |
| 20260507085000 | 68 | 273 | 0.0 | 0.0 | 0.00 | 0.00 | 0.00 | 92 | 1012.8 |
| 20260507084000 | 68 | 273 | 0.0 | 0.0 | 0.00 | 0.00 | 0.00 | 91 | 1012.8 |
| 20260507083004 | 68 | 273 | 0.0 | 0.0 | 0.00 | 0.00 | 0.00 | 91 | 1012.9 |
| 20260507082000 | 68 | 273 | 0.0 | 0.0 | 0.00 | 0.00 | 0.00 | 91 | 1012.8 |
| 20260507081000 | 68 | 273 | 0.0 | 0.0 | 0.00 | 0.00 | 0.00 | 91 | 1012.5 |
| 20260507080002 | 67 | 273 | 0.0 | 0.0 | 0.00 | 0.00 | 0.00 | 91 | 1012.6 |
| 20260507075002 | 67 | 273 | 0.0 | 0.0 | 0.00 | 0.00 | 0.00 | 90 | 1012.5 |
| 20260507074000 | 67 | 273 | 0.0 | 0.0 | 0.00 | 0.00 | 0.00 | 90 | 1012.6 |
| 20260507072000 | 68 | 273 | 0.0 | 0.0 | 0.00 | 0.00 | 0.00 | 90 | 1012.7 |
| 20260507071009 | 68 | 273 | 0.0 | 0.0 | 0.00 | 0.00 | 0.00 | 90 | 1012.9 |
| 20260507070012 | 68 | 273 | 0.0 | 0.0 | 0.00 | 0.00 | 0.00 | 89 | 1013.0 |
| 20260507065000 | 68 | 273 | 0.0 | 0.0 | 0.00 | 0.00 | 0.00 | 88 | 1013.1 |
| 20260507064002 | 68 | 273 | 0.0 | 0.0 | 0.00 | 0.00 | 0.00 | 88 | 1013.3 |
| 20260507063000 | 68 | 273 | 0.0 | 0.0 | 0.00 | 0.00 | 0.00 | 88 | 1013.4 |
| 20260507062020 | 69 | 273 | 0.0 | 0.0 | 0.00 | 0.00 | 0.00 | 87 | 1013.4 |
| 20260507061000 | 69 | 273 | 0.0 | 0.0 | 0.00 | 0.00 | 0.00 | 87 | 1013.5 |
| 20260507060006 | 69 | 273 | 0.0 | 0.0 | 0.00 | 0.00 | 0.00 | 86 | 1013.4 |
| 20260507055000 | 69 | 273 | 0.0 | 0.0 | 0.00 | 0.00 | 0.00 | 85 | 1013.5 |
| 20260507054002 | 70 | 273 | 0.0 | 0.0 | 0.00 | 0.00 | 0.00 | 85 | 1013.9 |
| 20260507053000 | 70 | 273 | 0.0 | 0.0 | 0.00 | 0.00 | 0.00 | 85 | 1014.0 |
| 20260507052002 | 70 | 273 | 0.0 | 0.0 | 0.00 | 0.00 | 0.00 | 84 | 1014.0 |
| 20260507051000 | 70 | 273 | 0.0 | 0.0 | 0.00 | 0.00 | 0.00 | 84 | 1014.0 |
| 20260507050006 | 70 | 273 | 0.0 | 0.0 | 0.00 | 0.00 | 0.00 | 82 | 1014.0 |
| 20260507045002 | 71 | 273 | 0.0 | 0.0 | 0.00 | 0.00 | 0.00 | 82 | 1014.2 |
| 20260507044002 | 71 | 273 | 0.0 | 0.0 | 0.00 | 0.00 | 0.00 | 83 | 1014.3 |
| 20260507042002 | 72 | 273 | 0.0 | 0.0 | 0.00 | 0.00 | 0.00 | 81 | 1014.3 |
| 20260507041002 | 72 | 273 | 0.0 | 0.0 | 0.00 | 0.00 | 0.00 | 80 | 1014.4 |
| 20260507040006 | 72 | 273 | 0.0 | 0.0 | 0.00 | 0.00 | 0.00 | 80 | 1014.4 |